TimeEST,TemperatureF,Dew PointF,Humidity,Sea Level PressureIn,VisibilityMPH,Wind Direction,Wind SpeedMPH,Gust SpeedMPH,PrecipitationIn,Events,Conditions,WindDirDegrees,DateUTC
12:21 AM,35.6,35.6,100,30.20,4.0,West,3.5,-,0.00,Rain,Light Rain,280,2013-01-28 05:21:00
12:53 AM,37.0,37.0,100,30.18,4.0,Calm,Calm,-,0.00,Rain,Light Rain,0,2013-01-28 05:53:00
1:45 AM,39.2,39.2,100,30.16,7.0,WSW,3.5,-,0.00,,Overcast,240,2013-01-28 06:45:00
1:53 AM,39.0,37.9,96,30.17,6.0,WSW,3.5,-,0.00,,Overcast,240,2013-01-28 06:53:00
2:07 AM,39.2,39.2,100,30.17,6.0,SW,3.5,-,0.00,Rain,Light Rain,230,2013-01-28 07:07:00
2:26 AM,39.2,39.2,100,30.17,5.0,West,3.5,-,0.00,Rain,Light Rain,270,2013-01-28 07:26:00
2:53 AM,39.0,39.0,100,30.18,5.0,West,3.5,-,0.00,,Overcast,270,2013-01-28 07:53:00
3:53 AM,39.0,39.0,100,30.17,3.0,WSW,3.5,-,0.00,,Mostly Cloudy,250,2013-01-28 08:53:00
4:53 AM,41.0,39.9,96,30.15,5.0,WSW,6.9,-,N/A,,Partly Cloudy,250,2013-01-28 09:53:00
5:53 AM,42.1,41.0,96,30.14,8.0,SW,6.9,-,0.00,,Mostly Cloudy,220,2013-01-28 10:53:00
6:53 AM,43.0,39.9,89,30.12,10.0,SSW,8.1,-,N/A,,Mostly Cloudy,200,2013-01-28 11:53:00
7:53 AM,44.1,39.9,85,30.12,10.0,SSW,11.5,-,N/A,,Scattered Clouds,200,2013-01-28 12:53:00
8:53 AM,46.9,41.0,80,30.11,10.0,SSW,10.4,-,N/A,,Overcast,210,2013-01-28 13:53:00
9:53 AM,51.1,44.1,77,30.11,10.0,WSW,11.5,25.3,0.00,Rain,Light Rain,240,2013-01-28 14:53:00
10:19 AM,50.0,46.4,87,30.11,3.0,SW,11.5,-,N/A,Rain,Rain,220,2013-01-28 15:19:00
10:53 AM,50.0,46.0,86,30.13,10.0,SW,10.4,-,0.05,,Overcast,220,2013-01-28 15:53:00
11:53 AM,50.0,46.9,89,30.13,9.0,SSW,15.0,-,0.05,Rain,Light Rain,210,2013-01-28 16:53:00
12:53 PM,51.1,48.0,89,30.11,9.0,SW,11.5,-,0.00,,Overcast,230,2013-01-28 17:53:00
1:39 PM,51.8,48.2,88,30.08,9.0,SW,13.8,20.7,0.00,Rain,Light Rain,230,2013-01-28 18:39:00
1:53 PM,51.1,48.9,92,30.08,4.0,SW,12.7,-,0.00,Rain,Rain,220,2013-01-28 18:53:00
2:53 PM,51.1,48.9,92,30.07,8.0,SSW,11.5,-,0.02,,Overcast,210,2013-01-28 19:53:00
3:53 PM,52.0,50.0,93,30.07,10.0,SSW,13.8,-,0.00,,Overcast,210,2013-01-28 20:53:00
4:53 PM,52.0,50.0,93,30.07,7.0,SSW,12.7,-,N/A,,Overcast,210,2013-01-28 21:53:00
5:53 PM,52.0,50.0,93,30.08,9.0,SSW,12.7,-,N/A,,Overcast,210,2013-01-28 22:53:00
6:53 PM,52.0,50.0,93,30.09,8.0,SW,8.1,-,0.00,,Overcast,220,2013-01-28 23:53:00
7:53 PM,52.0,50.0,93,30.09,7.0,SSW,6.9,-,0.00,,Overcast,210,2013-01-29 00:53:00
8:53 PM,52.0,51.1,97,30.09,7.0,SSW,5.8,-,N/A,,Overcast,210,2013-01-29 01:53:00
9:53 PM,52.0,51.1,97,30.08,6.0,SSW,4.6,-,N/A,,Overcast,200,2013-01-29 02:53:00
10:40 PM,51.8,50.0,94,30.08,4.0,Calm,Calm,-,0.00,,Overcast,0,2013-01-29 03:40:00
10:53 PM,50.0,50.0,100,30.08,5.0,South,3.5,-,0.00,,Overcast,180,2013-01-29 03:53:00
11:32 PM,50.0,50.0,100,30.07,5.0,Calm,Calm,-,N/A,,Overcast,0,2013-01-29 04:32:00
11:53 PM,50.0,50.0,100,30.08,5.0,Calm,Calm,-,N/A,,Overcast,0,2013-01-29 04:53:00